Perry, FL

7:52 AM EST on February 09, 2016 (GMT -0500)
Perry

Weather History for K40J - May, 2013

Change the Weather History Date:

Monday, May 6, 2013

  Actual Average (KCTY) Record (KCTY)
Temperature  
Mean Temperature 58 °F 72 °F  
Max Temperature 69 °F 85 °F 91 °F (2007)
Min Temperature 46 °F 58 °F 48 °F (2013)
Degree Days  
Heating Degree Days 8 0  
Month to date heating degree days 0  
Since 1 July heating degree days 1303  
Cooling Degree Days 0 7  
Month to date cooling degree days 38  
Year to date cooling degree days 220  
Growing Degree Days 8 (Base 50)    
Moisture  
Dew Point 50 °F    
Average Humidity 75    
Maximum Humidity 100    
Minimum Humidity 47    
Precipitation  
Precipitation 0.02 in 0.09 in 0.22 in (2011)
Month to date precipitation 0.40  
Year to date precipitation 14.88  
Sea Level Pressure  
Sea Level Pressure 29.97 in    
Wind  
Wind Speed 4 mph (West)    
Max Wind Speed 15 mph    
Max Gust Speed 21 mph    
Visibility 10 miles    
Events      
T = Trace of Precipitation, MM = Missing Value Source: NWS Daily Summary

Daily Weather History Graph

Daily Weather History Graph

Search for Another Location

Airport or City:

Trip Planner

Search our weather history database for the weather conditions in past years. The results will help you decide how hot, cold, wet, or windy it might be!

Date:

Astronomy

May. 06, 2013 Rise Set
Actual Time 6:46 AM EDT 8:15 PM EDT
Civil Twilight 6:21 AM EDT 8:40 PM EDT
Nautical Twilight 5:50 AM EDT 9:11 PM EDT
Astronomical Twilight 5:18 AM EDT 9:43 PM EDT
Moon 4:34 AM EDT (5/6) 5:25 PM EDT (5/6)
Length of Visible Light 14h 19m
Length of Day
13h 28m
Waning Crescent, 11% of the Moon is Illuminated
May 6
Waning Crescent
May 9
New
May 18
First Quarter
May 25
Full
May 31
Last Quarter

Hourly Weather History & Observations

Time (EDT) Temp. Dew Point Humidity Pressure Visibility Wind Dir Wind Speed Gust Speed Precip Events Conditions
12:15 AM 59.0 °F 59.0 °F 100% 29.91 in 10.0 mi Calm Calm - N/A   Clear
12:35 AM 57.2 °F 57.2 °F 100% 29.91 in 10.0 mi Calm Calm - N/A   Mostly Cloudy
12:53 AM 57.0 °F 52.0 °F 83% 29.90 in - Calm Calm - N/A   Unknown
12:55 AM 57.2 °F 57.2 °F 100% 29.91 in 10.0 mi Calm Calm - N/A   Mostly Cloudy
1:15 AM 57.2 °F 57.2 °F 100% 29.92 in 10.0 mi WNW 6.9 mph - N/A   Mostly Cloudy
1:35 AM 57.2 °F 57.2 °F 100% 29.92 in 10.0 mi WNW 8.1 mph - N/A   Mostly Cloudy
1:53 AM 55.9 °F 50.0 °F 80% 29.91 in - WNW 6.9 mph - N/A   Unknown
1:55 AM 55.4 °F 55.4 °F 100% 29.92 in 10.0 mi WNW 6.9 mph - N/A   Scattered Clouds
2:15 AM 55.4 °F 55.4 °F 100% 29.92 in 10.0 mi WNW 6.9 mph - N/A   Clear
2:35 AM 53.6 °F 53.6 °F 100% 29.92 in 10.0 mi WNW 4.6 mph - N/A   Clear
2:53 AM 55.0 °F 48.9 °F 80% 29.91 in - WNW 6.9 mph - 0.01 in   Unknown
2:55 AM 53.6 °F 53.6 °F 100% 29.93 in 10.0 mi WNW 5.8 mph - N/A   Mostly Cloudy
3:15 AM 53.6 °F 53.6 °F 100% 29.93 in 10.0 mi NW 5.8 mph - N/A   Mostly Cloudy
3:35 AM 53.6 °F 53.6 °F 100% 29.93 in 10.0 mi WNW 4.6 mph - N/A   Scattered Clouds
3:53 AM 51.1 °F 46.0 °F 83% 29.92 in - WNW 5.8 mph - N/A   Unknown
3:55 AM 51.8 °F 51.8 °F 100% 29.94 in 10.0 mi WNW 5.8 mph - N/A   Scattered Clouds
4:15 AM 51.8 °F 51.8 °F 100% 29.95 in 10.0 mi WNW 5.8 mph - N/A   Clear
4:35 AM 50.0 °F 50.0 °F 100% 29.95 in 10.0 mi WNW 3.5 mph - N/A   Clear
4:53 AM 50.0 °F 44.1 °F 80% 29.94 in - West 4.6 mph - N/A   Unknown
4:55 AM 50.0 °F 50.0 °F 100% 29.95 in 10.0 mi West 3.5 mph - N/A   Clear
5:15 AM 50.0 °F 50.0 °F 100% 29.95 in 10.0 mi WNW 3.5 mph - N/A   Clear
5:35 AM 50.0 °F 50.0 °F 100% 29.95 in 10.0 mi Calm Calm - N/A   Clear
5:53 AM 48.0 °F 43.0 °F 83% 29.95 in - Calm Calm - N/A   Unknown
5:55 AM 48.2 °F 48.2 °F 100% 29.96 in 10.0 mi Calm Calm - N/A   Clear
6:15 AM 46.4 °F 46.4 °F 100% 29.97 in 10.0 mi Calm Calm - N/A   Clear
6:35 AM 46.4 °F 46.4 °F 100% 29.97 in 10.0 mi Calm Calm - N/A   Clear
6:53 AM 46.0 °F 42.1 °F 86% 29.97 in - Calm Calm - N/A   Unknown
6:55 AM 46.4 °F 46.4 °F 100% 29.98 in 10.0 mi Calm Calm - N/A   Clear
7:15 AM 46.4 °F 46.4 °F 100% 29.99 in 10.0 mi Calm Calm - N/A   Clear
7:35 AM 46.4 °F 46.4 °F 100% 30.00 in 10.0 mi Calm Calm - N/A   Clear
7:53 AM 50.0 °F 45.0 °F 83% 29.99 in - WNW 3.5 mph - N/A   Unknown
7:55 AM 50.0 °F 50.0 °F 100% 30.00 in 10.0 mi WNW 3.5 mph - N/A   Clear
8:15 AM 51.8 °F 51.8 °F 100% 30.01 in 10.0 mi WNW 6.9 mph - N/A   Clear
8:35 AM 51.8 °F 50.0 °F 94% 30.02 in 10.0 mi WNW 6.9 mph - N/A   Clear
8:53 AM 54.0 °F 46.0 °F 75% 30.00 in - WNW 6.9 mph - N/A   Unknown
8:55 AM 53.6 °F 50.0 °F 88% 30.02 in 10.0 mi West 6.9 mph - N/A   Clear
9:15 AM 55.4 °F 50.0 °F 82% 30.02 in 10.0 mi NW 6.9 mph - N/A   Clear
9:35 AM 55.4 °F 48.2 °F 77% 30.03 in 10.0 mi WNW 8.1 mph - N/A   Clear
9:53 AM 57.9 °F 46.0 °F 65% 30.02 in - WNW 6.9 mph - N/A   Unknown
9:55 AM 59.0 °F 48.2 °F 67% 30.03 in 10.0 mi WNW 8.1 mph - N/A   Clear
10:15 AM 59.0 °F 48.2 °F 67% 30.04 in 10.0 mi NW 5.8 mph - N/A   Clear
10:35 AM 60.8 °F 48.2 °F 63% 30.04 in 10.0 mi NW 4.6 mph - N/A   Clear
10:53 AM 62.1 °F 46.0 °F 56% 30.02 in - NNW 6.9 mph - N/A   Unknown
10:55 AM 60.8 °F 50.0 °F 68% 30.04 in 10.0 mi NW 5.8 mph - N/A   Clear
11:15 AM 62.6 °F 48.2 °F 59% 30.03 in 10.0 mi North 4.6 mph - N/A   Clear
11:35 AM 62.6 °F 46.4 °F 55% 30.03 in 10.0 mi WNW 4.6 mph - N/A   Scattered Clouds
11:53 AM 63.0 °F 46.0 °F 54% 30.01 in - Calm Calm - N/A   Unknown
11:55 AM 62.6 °F 46.4 °F 55% 30.02 in 10.0 mi WSW 3.5 mph - N/A   Clear
12:15 PM 64.4 °F 48.2 °F 56% 30.02 in 10.0 mi Calm Calm - N/A   Clear
12:35 PM 64.4 °F 48.2 °F 56% 30.02 in 10.0 mi WNW 8.1 mph - N/A   Clear
12:53 PM 66.0 °F 46.9 °F 50% 30.00 in - WNW 9.2 mph - N/A   Unknown
12:55 PM 66.2 °F 50.0 °F 56% 30.02 in 10.0 mi WNW 6.9 mph - N/A   Scattered Clouds
1:15 PM 68.0 °F 48.2 °F 49% 30.01 in 10.0 mi WNW 8.1 mph - N/A   Scattered Clouds
1:35 PM 68.0 °F 48.2 °F 49% 30.00 in 10.0 mi WNW 4.6 mph - N/A   Scattered Clouds
1:53 PM 66.9 °F 46.0 °F 47% 29.99 in - West 6.9 mph - N/A   Unknown
1:55 PM 68.0 °F 48.2 °F 49% 30.00 in 10.0 mi WNW 8.1 mph - N/A   Scattered Clouds
2:15 PM 68.0 °F 48.2 °F 49% 30.00 in 10.0 mi SW 5.8 mph - N/A   Scattered Clouds
2:35 PM 68.0 °F 51.8 °F 56% 29.99 in 10.0 mi SSW 4.6 mph 9.2 mph N/A   Scattered Clouds
2:53 PM 66.0 °F 48.0 °F 52% 29.98 in - SSW 10.4 mph - N/A   Unknown
2:55 PM 66.2 °F 50.0 °F 56% 29.99 in 10.0 mi South 8.1 mph - N/A   Mostly Cloudy
3:15 PM 66.2 °F 50.0 °F 56% 29.99 in 10.0 mi SSW 5.8 mph - N/A   Overcast
3:35 PM 66.2 °F 50.0 °F 56% 29.98 in 10.0 mi SW 8.1 mph - N/A   Overcast
3:53 PM 66.0 °F 48.0 °F 52% 29.96 in - WSW 9.2 mph - N/A   Unknown
3:55 PM 66.2 °F 50.0 °F 56% 29.97 in 10.0 mi WSW 9.2 mph - N/A   Overcast
4:15 PM 69.8 °F 51.8 °F 53% 29.97 in 10.0 mi WSW 12.7 mph 18.4 mph N/A   Overcast
4:35 PM 68.0 °F 50.0 °F 52% 29.96 in 10.0 mi SW 11.5 mph 16.1 mph N/A   Scattered Clouds
4:53 PM 68.0 °F 48.0 °F 49% 29.94 in - SW 12.7 mph 20.7 mph N/A   Unknown
4:55 PM 68.0 °F 50.0 °F 52% 29.96 in 10.0 mi SW 15.0 mph 19.6 mph N/A   Clear
5:15 PM 68.0 °F 51.8 °F 56% 29.96 in 10.0 mi SW 11.5 mph 16.1 mph N/A   Clear
5:35 PM 68.0 °F 50.0 °F 52% 29.96 in 10.0 mi SSW 11.5 mph 17.3 mph N/A   Clear
5:53 PM 66.9 °F 48.0 °F 51% 29.94 in - SSW 10.4 mph - N/A   Unknown
5:55 PM 68.0 °F 50.0 °F 52% 29.96 in 10.0 mi SW 9.2 mph - N/A   Clear
6:15 PM 64.4 °F 51.8 °F 64% 29.96 in 10.0 mi SW 10.4 mph - N/A   Scattered Clouds
6:53 PM 66.0 °F 50.0 °F 56% 29.94 in - South 6.9 mph - N/A   Unknown
6:55 PM 66.2 °F 51.8 °F 60% 29.95 in 10.0 mi South 10.4 mph - N/A   Mostly Cloudy
7:15 PM 64.4 °F 51.8 °F 64% 29.95 in 10.0 mi SSW 6.9 mph - N/A   Mostly Cloudy
7:35 PM 64.4 °F 53.6 °F 68% 29.95 in 10.0 mi South 4.6 mph - N/A   Mostly Cloudy
7:53 PM 64.0 °F 51.1 °F 63% 29.95 in - South 5.8 mph - N/A   Unknown
7:55 PM 64.4 °F 53.6 °F 68% 29.96 in 10.0 mi South 4.6 mph - N/A   Scattered Clouds
8:15 PM 62.6 °F 53.6 °F 72% 29.96 in 10.0 mi SSE 4.6 mph - N/A   Clear
8:35 PM 60.8 °F 53.6 °F 77% 29.96 in 10.0 mi SSE 4.6 mph - N/A   Clear
8:53 PM 60.8 °F 51.8 °F 72% 29.95 in - SSE 6.9 mph - N/A   Unknown
8:55 PM 60.8 °F 53.6 °F 77% 29.97 in 10.0 mi SSE 5.8 mph - N/A   Scattered Clouds
9:15 PM 60.8 °F 53.6 °F 77% 29.97 in 10.0 mi South 5.8 mph - N/A   Clear
9:35 PM 60.8 °F 53.6 °F 77% 29.98 in 10.0 mi Calm Calm - N/A   Mostly Cloudy
9:53 PM 60.1 °F 51.1 °F 72% 29.97 in - SW 5.8 mph - 0.01 in   Unknown
9:55 PM 60.8 °F 53.6 °F 77% 29.99 in 10.0 mi SW 4.6 mph - N/A   Scattered Clouds
10:15 PM 59.0 °F 53.6 °F 82% 29.99 in 10.0 mi Calm Calm - N/A   Clear
10:53 PM 57.9 °F 50.0 °F 75% 29.99 in - Calm Calm - N/A   Unknown
10:55 PM 59.0 °F 51.8 °F 77% 30.00 in 10.0 mi Calm Calm - N/A   Scattered Clouds
11:15 PM 59.0 °F 53.6 °F 82% 30.00 in 10.0 mi West 3.5 mph - N/A   Mostly Cloudy
11:35 PM 59.0 °F 53.6 °F 82% 30.00 in 10.0 mi Calm Calm - N/A   Mostly Cloudy
11:53 PM 57.9 °F 50.0 °F 75% 29.98 in - Calm Calm - N/A   Unknown
11:55 PM 59.0 °F 53.6 °F 82% 30.00 in 10.0 mi Calm Calm - N/A   Overcast